+ View the NASA Portal
+ Center for Near-Earth Object Studies
IMPORTANT:
The SSD Announcement email list is now available. Major changes are coming in the near future, including possible hostname and/or URL changes. To be notified of such changes, subscribe to this email list.
Please visit
this page
for more details.
Don't show this message again
JPL Small-Body Database Browser
Search:
[
help
]
437588 (2014 AU47)
Classification:
Main-belt Asteroid
SPK-ID:
2437588
[
Ephemeris
|
Orbit Diagram
|
Orbital Elements
|
Mission Design
|
Physical Parameters
|
Discovery Circumstances
]
[ show orbit diagram ]
Orbital Elements at Epoch 2458600.5 (2019-Apr-27.0) TDB
Reference:
JPL 12
(heliocentric ecliptic J2000)
Element
Value
Uncertainty (1-sigma)
Units
e
.05478526981253328
6.0748e-08
a
2.710344637369137
3.9811e-08
au
q
2.561857675125916
1.661e-07
au
i
5.566914258764742
8.2387e-06
deg
node
315.2970095528636
7.6638e-05
deg
peri
112.420296919224
0.00011996
deg
M
115.1261627859016
9.6814e-05
deg
t
p
2458079.297209504545
(2017-Nov-21.79720950)
0.00043249
TDB
period
1629.803339552817
4.46
3.5909e-05
9.831e-08
d
yr
n
.2208855456749624
4.8667e-09
deg/d
Q
2.858831599612357
4.1992e-08
au
Orbit Determination Parameters
# obs. used (total)
123
data-arc span
5662 days (15.50 yr)
first obs. used
2003-10-03
last obs. used
2019-04-04
planetary ephem.
DE431
SB-pert. ephem.
SB431-N16
condition code
0
norm. resid. RMS
.62198
source
ORB
producer
Otto Matic
solution date
2019-Jul-14 15:46:44
Additional Information
Earth MOID
= 1.58214 au
Jupiter MOID
= 2.29866 au
T_jup
= 3.354
[ show covariance matrix ]
[
Ephemeris
|
Orbit Diagram
|
Orbital Elements
|
Mission Design
|
Physical Parameters
|
Discovery Circumstances
]
Physical Parameter Table
Parameter
Symbol
Value
Units
Sigma
Reference
Notes
absolute magnitude
H
16.7
n/a
MPO434611
437588 (2014 AU47)
Discovered 2003-Oct-03 by Spacewatch at Kitt Peak
Reference:
Last Updated:
2015-06-04
Alternate Designations
2014 AU47
= 2012 UP84
[
Ephemeris
|
Orbit Diagram
|
Orbital Elements
|
Mission Design
|
Physical Parameters
|
Discovery Circumstances
]
2019-Dec-13 11:07 UT
(server date/time)
Site Manager:
Ryan S. Park
Webmaster
:
Alan B. Chamberlin